Hors Challenge

Le Trail Du Kap Expé - Ottignies-Louvain-La-Neuve (6.00 km)

mercredi 12 février 2020

Vous pouvez trouver Le classement original sur : http://ultratiming.be  
 
LE TRAIL DU KAP EXPÉ - OTTIGNIES-LOUVAIN-LA-NEUVE
DISTANCE : 6.00 km
mercredi 12 février 2020
 
Place dos NOM Catégorie Pl/cat temps temps/km Vitesse
01:00:00              
1 1736 VAN DER KAA THOMAS ESPH 1 0:23:41 03:57 15.20
2 1637 DUSZA SERGE V1H 1 0:24:44 04:07 14.55
3 1610 BOUILLOT THEO ESPH 2 0:25:07 04:11 14.33
4 1719 VAN BRUSSEL ROMAIN ESPH 3 0:25:59 04:20 13.85
5 1682 MEEÛS JOACHIM ESPH 4 0:26:03 04:21 13.82
6 1718 VAN BAEL ALOÏS ESPH 5 0:26:25 04:24 13.63
7 1619 DAYEZ MATTHIEU SEH 1 0:28:06 04:41 12.81
8 1735 HAMICH MHAMED V1H 2 0:28:39 04:47 12.56
9 1639 EVRARD THEODORE ESPH 6 0:28:40 04:47 12.56
10 1724 VANDENBOSCH NATHAN ESPH 7 0:29:11 04:52 12.34
11 1647 GREVESSE DIMITRI ESPH 8 0:29:17 04:53 12.29
12 1656 JACQUEMART MARTIN ESPH 9 0:29:18 04:53 12.29
13 1685 MICHELS PIERRE ESPH 10 0:29:25 04:54 12.24
14 1608 BLAVIER ALEXIS ESPH 11 0:29:26 04:54 12.23
15 1675 LUC ALEXANDRE SEH 2 0:29:41 04:57 12.13
16 1709 SERRUYS SEBASTIEN ESPH 12 0:29:44 04:57 12.11
17 1652 HOMMET VIANNEY ESPH 13 0:30:05 05:01 11.97
18 1676 MACQ SIMON ESPH 14 0:30:12 05:02 11.92
19 1715 STALINS LOUIS SEH 3 0:31:00 05:10 11.61
20 1712 SPARENBERG SIMON ESPH 15 0:31:15 05:13 11.52
21 1720 VAN BRUSSEL SIMON ESPH 16 0:31:28 05:15 11.44
22 1678 MASARWEH ALEXIS ESPH 17 0:32:04 05:21 11.23
23 1654 HOUTART DIEGO ESPH 18 0:32:07 05:21 11.21
24 1721 VAN DROOGHENBROECK THOMAS ESPH 19 0:32:20 05:23 11.13
25 1740 DESNEUX CÉDRIC ESPH 20 0:32:20 05:23 11.13
26 1444 DE ROO STEEVE ESPH 21 0:32:36 05:26 11.04
27 1684 MEUWISSEN FRANÇOIS ESPH 22 0:32:49 05:28 10.97
28 1756 VERSCHAEVE VINCENT ESPH 23 0:33:02 05:30 10.90
29 1694 PETIT MAXIME ESPH 24 0:33:03 05:31 10.89
30 1626 DE VISSCHER JÉRÉMY ESPH 25 0:33:08 05:31 10.86
31 1474 FRANÇOIS ARNAUD ESPH 26 0:33:49 05:38 10.65
32 1657 JANSSENS CYPRIEN ESPH 27 0:33:51 05:39 10.63
33 1686 MONTENEZ HOCINE JUH 1 0:33:57 05:40 10.60
34 1622 DE CONDÉ LÉOPOLD ESPH 28 0:34:04 05:41 10.57
35 1648 GUILLAUME FÉLIX ESPH 29 0:34:22 05:44 10.47
36 1641 GAUTIER SWANN SEH 4 0:34:54 05:49 10.31
37 1695 POTIRON THÉO ESPH 30 0:35:21 05:54 10.18
38 1692 PAULUS ELIOT ESPH 31 0:35:42 05:57 10.08
39 1693 PELLISSIER THOMAS SEH 5 0:35:49 05:58 10.05
40 1628 DELMELLE SAMUEL SEH 6 0:35:50 05:58 10.05
41 1666 LAUZER JIMMY ESPH 32 0:35:55 05:59 10.02
42 1705 SCHAFFERS LUCAS ESPH 33 0:36:21 06:04 9.90
43 1722 VAN ROY JULIEN ESPH 34 0:36:30 06:05 9.86
44 1634 DOMMISSE JEROEN ESPH 35 0:36:31 06:05 9.86
45 1713 SPIRA MAXIME ESPH 36 0:36:32 06:05 9.85
46 1707 SCHOEPS BENOÎT ESPH 37 0:37:14 06:12 9.67
47 1429 COPPIETERS ODILE ESPF 1 0:37:39 06:17 9.56
48 1613 CHARTIER CAMILLE ESPF 2 0:37:43 06:17 9.54
49 1651 HEYMANS LAURA SEF 1 0:37:57 06:20 9.49
50 1717 TIMMERS COLIN ESPH 38 0:38:06 06:21 9.45
51 1623 DE JAEGER CLÉMENCE ESPF 3 0:38:12 06:22 9.42
52 1670 LECRY DAVID SEH 7 0:38:16 06:23 9.41
53 1625 DE PIERPONT AMÉLIE ESPF 4 0:38:16 06:23 9.41
54 1742 GREINER FRANÇOIS ESPH 39 0:38:24 06:24 9.37
55 1658 JOCKIN LAURANE ESPF 5 0:38:50 06:28 9.27
56 1730 VERMEULEN LUCIEN ESPH 40 0:38:54 06:29 9.25
57 1751 DE BREUCK YSALINE ESPF 6 0:38:55 06:29 9.25
58 1679 MASQUELIER ELISE ESPF 7 0:38:57 06:30 9.24
59 1690 OVENS JODIE SEF 2 0:38:57 06:30 9.24
60 1750 BLEUNVEN LENA ESPF 8 0:38:59 06:30 9.23
61 1665 LAUNOIS JULIEN ESPH 41 0:39:03 06:31 9.22
62 1630 DELVAUX MAXIMILIEN ESPH 42 0:39:20 06:33 9.15
63 1674 LIPTON SAM SEH 8 0:39:41 06:37 9.07
64 1672 LIBERT EMILIE ESPF 9 0:40:30 06:45 8.89
65 1660 KIRSCH BENJAMIN ESPH 43 0:40:30 06:45 8.89
66 1706 SCHEIRLINCKX CHLOÉ JUF 1 0:40:34 06:46 8.87
67 1733 WEBER EMMANUELLE ESPF 10 0:40:34 06:46 8.87
68 1645 GOLENVAUX NICOLAS ESPH 44 0:40:38 06:46 8.86
69 1615 CLOQUET ROMANE ESPF 11 0:40:50 06:48 8.82
70 1612 BRULEIN JONATHAN SEH 9 0:40:50 06:48 8.82
71 1649 GUILMOT ROBIN ESPH 45 0:41:06 06:51 8.76
72 1504 LAMBERT LEA ESPF 12 0:41:28 06:55 8.68
73 1708 SCHROEDER MATHILDE ESPF 13 0:41:29 06:55 8.68
74 1667 LE POLAIN VICTORIA SEF 3 0:41:30 06:55 8.67
75 1699 RENUART LAURA JUF 2 0:41:31 06:55 8.67
76 1703 RUPINI YANKO ESPH 46 0:41:31 06:55 8.67
77 1697 RAL LYNE SEF 4 0:41:33 06:56 8.66
78 1748 DESAUSOI LAURENT ESPH 47 0:41:50 06:58 8.61
79 1669 LECLERCQ LUCAS ESPH 48 0:41:57 07:00 8.58
80 1617 CORNET CHLOE ESPF 14 0:41:57 07:00 8.58
81 1659 KARTHEISER JUSTINE ESPF 15 0:42:12 07:02 8.53
82 1754 BRICOUT CAMILLE ESPF 16 0:42:12 07:02 8.53
83 1746 DEVILLEZ MORGANE ESPF 17 0:42:47 07:08 8.41
84 1755 RIOUX CÉLINE ESPF 18 0:42:54 07:09 8.39
85 1650 HENRY DE GENERET NOÉMIE ESPF 19 0:43:00 07:10 8.37
86 1731 VERSTRAETEN LUCIE ESPF 20 0:43:03 07:11 8.36
87 1673 LIBION MARC V2H 1 0:43:18 07:13 8.31
88 1618 DARGENTON AIMERY SEH 10 0:43:19 07:13 8.31
89 1725 VANDEPUTTE EMILIE ESPF 21 0:43:39 07:17 8.25
90 1602 ALAERTS BENJAMIN ESPH 49 0:44:10 07:22 8.15
91 1603 ALAERTS SIMON ESPH 50 0:44:14 07:22 8.14
92 1716 THYS FLORIANE ESPF 22 0:44:22 07:24 8.11
93 1642 GIUS LISA ESPF 23 0:44:56 07:29 8.01
94 1743 WIELS MÉLANIE ESPF 24 0:45:12 07:32 7.96
95 1687 MOREL FLORE ESPF 25 0:45:26 07:34 7.92
96 1662 KUYPER MARIE SEF 5 0:46:34 07:46 7.73
97 1698 RASSE CAMILLE SEF 6 0:46:35 07:46 7.73
98 1606 BASTIN MATHILDA ESPF 26 0:47:08 07:51 7.64
99 1604 AOUATI CAROLINE ESPF 27 0:47:24 07:54 7.59
100 1723 VANDEN EYNDE BARBARA V1F 1 0:48:22 08:04 7.44
101 1616 COMPERE CLELENT ESPF 28 0:48:30 08:05 7.42
102 1702 ROBINNE ERWIN SEH 11 0:49:18 08:13 7.30
103 1621 DE BRUYN MARIE ESPF 29 0:49:41 08:17 7.25
104 1689 MUGUERZA VICTORIA ESPF 30 0:50:43 08:27 7.10
105 1728 VERBIST FANNY ESPF 31 0:50:44 08:27 7.10
106 1664 LAMBERT MARIE ESPF 32 0:51:51 08:39 6.94
107 1614 CLERBOIS ELISE ESPF 33 0:51:51 08:39 6.94
108 1653 HOUGARDY CATHERINE ESPF 34 0:52:14 08:42 6.89
109 1683 MERTENS NEIGE ESPF 35 0:52:14 08:42 6.89
110 1638 EVRARD AIMERIC SEH 12 0:54:44 09:07 6.58
111 1700 REUL CAMILLE ESPF 36 1:00:00 10:00 6.00
112 1605 BADALAMENTI LOLA ESPF 37 1:00:06 10:01 5.99
113 1681 MEDUGNO ALICIA ESPF 38 1:00:06 10:01 5.99
114 1688 MOSTADE MARGAUX ESPF 39 1:02:45 10:28 5.74
115 1691 PATZELT VICTORIA ESPF 40 1:02:51 10:29 5.73
116 1729 VERMALEN EMILIE ESPF 41 1:07:25 11:14 5.34
117 1732 WAGENAAR LOUISE SEF 7 1:07:25 11:14 5.34